Location: Days
(41.3591°N, 106.7339°W)
Time: 20:00:35
(UTC+00:00)

AIST 2D - Pass Details

Date: 05 July 2022
Orbit: 433 x 443 km, 97.0° (Epoch: 17 August)

Event Time Altitude Azimuth Distance (km) Brightness Sun altitude
Rises 05:43:20 0° 351° (N) 2,427 ? -22.7°
Reaches altitude 10° 05:46:07 10° 324° (NW) 1,555 ? -22.9°
Maximum altitude 05:47:51 14° 293° (WNW) 1,348 ? -23.0°
Drops below altitude 10° 05:49:34 10° 261° (W) 1,552 ? -23.1°
Enters shadow 05:49:46 - 258° (WSW) 1,595 ? -23.1°
